�N����,����,�g�[���i���ԁj���x,�g�[�����x,��g�[���i���ցj���x,����
 2003/07/01, 0:00,28.3,58,27.7,25.3
 2003/07/01, 0:15,28.4,58,27.9,23.3
 2003/07/01, 0:30,28.4,59,27.8,23.4
 2003/07/01, 0:45,28.4,59,27.8,23.5
 2003/07/01, 1:00,28.3,59,27.8,23.5
 2003/07/01, 1:15,28.4,59,27.8,23.6
 2003/07/01, 1:30,28.4,60,27.8,23.7
 2003/07/01, 1:45,28.4,60,27.8,23.8
 2003/07/01, 2:00,28.4,60,27.8,23.8
 2003/07/01, 2:15,28.4,60,27.8,23.9
 2003/07/01, 2:30,28.4,60,27.8,24.6
 2003/07/01, 2:45,28.5,61,27.8,24.7
 2003/07/01, 3:00,28.5,61,27.8,24.7
 2003/07/01, 3:15,28.5,61,27.8,24.7
 2003/07/01, 3:30,28.5,61,27.8,24.8
 2003/07/01, 3:45,28.5,61,27.8,24.8
 2003/07/01, 4:00,28.6,61,27.8,24.9
 2003/07/01, 4:15,28.5,62,27.8,25.5
 2003/07/01, 4:30,28.5,62,27.9,25.5
 2003/07/01, 4:45,28.5,62,27.8,25.5
 2003/07/01, 5:00,28.6,62,27.8,25.5
 2003/07/01, 5:15,28.6,62,27.8,25.6
 2003/07/01, 5:30,28.6,62,27.8,25.6
 2003/07/01, 5:45,28.5,62,27.8,25.7
 2003/07/01, 6:00,28.6,61,27.8,25
 2003/07/01, 6:15,28.6,60,27.7,25.1
 2003/07/01, 6:30,28.7,60,27.7,25.1
 2003/07/01, 6:45,28.7,60,27.7,25.2
 2003/07/01, 7:00,28.6,60,27.7,25.2
 2003/07/01, 7:15,28.5,60,27.8,21.6
 2003/07/01, 7:30,28.3,62,27.7,21.7
 2003/07/01, 7:45,28.6,64,27.7,21.7
 2003/07/01, 8:00,28.7,63,27.7,21.8
 2003/07/01, 8:15,28.8,63,27.8,21.3
 2003/07/01, 8:30,28.9,63,27.9,21.4
 2003/07/01, 8:45,28.8,62,27.9,21.6
 2003/07/01, 9:00,28.8,62,27.9,21.7
 2003/07/01, 9:15,28.8,62,27.9,21.8
 2003/07/01, 9:30,28.8,62,28,22
 2003/07/01, 9:45,28.7,63,27.9,22.1
 2003/07/01,10:00,28.7,63,27.9,22.2
 2003/07/01,10:15,28.7,63,27.9,22.3
 2003/07/01,10:30,28.7,63,27.9,22.4
 2003/07/01,10:45,28.6,63,27.9,22.5
 2003/07/01,11:00,28.6,63,27.9,22.6
 2003/07/01,11:15,28.6,63,27.9,22.7
 2003/07/01,11:30,28.6,63,27.9,22.8
 2003/07/01,11:45,28.6,63,27.9,22.9
 2003/07/01,12:00,28.6,63,27.9,23
 2003/07/01,12:15,28.6,63,27.9,23.1
 2003/07/01,12:30,28.6,63,27.8,23.2
 2003/07/01,12:45,28.6,63,27.9,23.2
 2003/07/01,13:00,28.6,63,27.9,23.3
 2003/07/01,13:15,28.6,63,27.8,23.4
 2003/07/01,13:30,28.5,63,27.8,23.5
 2003/07/01,13:45,28.5,63,27.9,23.5
 2003/07/01,14:00,28.5,63,27.8,23.6
 2003/07/01,14:15,28.5,63,27.8,23.6
 2003/07/01,14:30,28.5,63,27.8,23.7
 2003/07/01,14:45,28.5,63,27.8,23.8
 2003/07/01,15:00,28.4,63,27.8,23.8
 2003/07/01,15:15,28.4,63,27.8,23.9
 2003/07/01,15:30,28.4,63,27.7,23.9
 2003/07/01,15:45,28.4,63,27.7,24
 2003/07/01,16:00,28.4,63,27.7,24
 2003/07/01,16:15,28.4,63,27.7,24.1
 2003/07/01,16:30,28.3,63,27.7,24.2
 2003/07/01,16:45,28.4,63,27.7,24.2
 2003/07/01,17:00,28.3,63,27.6,24.3
 2003/07/01,17:15,28.3,63,27.6,24.3
 2003/07/01,17:30,28.3,63,27.5,24.3
 2003/07/01,17:45,28.3,63,27.5,24.4
 2003/07/01,18:00,28.3,63,27.8,24.8
 2003/07/01,18:15,28.4,63,27.7,22.4
 2003/07/01,18:30,28.4,62,27.5,22.5
 2003/07/01,18:45,28.3,62,27.4,22.6
 2003/07/01,19:00,28.3,61,27.4,22.7
 2003/07/01,19:15,28.3,62,27.3,23.1
 2003/07/01,19:30,28.4,63,27.4,21.6
 2003/07/01,19:45,28.5,63,27.4,21.7
 2003/07/01,20:00,28.5,61,27.4,21.8
 2003/07/01,20:15,28.4,61,27.3,21.1
 2003/07/01,20:30,28.2,60,27.2,21.2
 2003/07/01,20:45,28.1,60,26.9,21.4
 2003/07/01,21:00,28.1,60,26.9,21.5
 2003/07/01,21:15,28,60,26.7,21.7
 2003/07/01,21:30,27.9,60,26.6,21.8
 2003/07/01,21:45,27.9,60,26.6,21.9
 2003/07/01,22:00,27.8,59,26.6,22
 2003/07/01,22:15,27.8,59,26.5,22.1
 2003/07/01,22:30,27.8,59,26.6,22.2
 2003/07/01,22:45,27.8,60,26.6,22.4
 2003/07/01,23:00,27.9,61,26.6,22.5
 2003/07/01,23:15,27.9,60,26.7,22.6
 2003/07/01,23:30,27.9,60,26.7,22.6
 2003/07/01,23:45,27.9,59,26.8,22.7
 2003/07/02, 0:00,27.9,59,26.9,22.8
 2003/07/02, 0:15,27.9,59,26.9,23.3
 2003/07/02, 0:30,27.9,59,26.9,23.4
 2003/07/02, 0:45,27.9,59,27,23.4
 2003/07/02, 1:00,28,59,27,23.5
 2003/07/02, 1:15,28,59,27,23.6
 2003/07/02, 1:30,28,60,27,23.7
 2003/07/02, 1:45,28,60,27,23.7
 2003/07/02, 2:00,27.9,60,26.9,23.8
 2003/07/02, 2:15,27.9,60,26.8,23.8
 2003/07/02, 2:30,27.8,59,26.8,23.9
 2003/07/02, 2:45,27.8,59,26.7,23.9
 2003/07/02, 3:00,27.7,59,26.7,24
 2003/07/02, 3:15,27.6,59,26.7,24.1
 2003/07/02, 3:30,27.6,59,26.7,24.1
 2003/07/02, 3:45,27.5,59,26.7,24.2
 2003/07/02, 4:00,27.5,59,26.7,24.2
 2003/07/02, 4:15,27.4,59,26.7,24.2
 2003/07/02, 4:30,27.4,59,26.6,24.3
 2003/07/02, 4:45,27.3,59,26.6,24.3
 2003/07/02, 5:00,27.3,58,26.6,24.4
 2003/07/02, 5:15,27.3,58,26.6,24.4
 2003/07/02, 5:30,27.3,58,26.6,24.4
 2003/07/02, 5:45,27.3,59,26.6,24.5
 2003/07/02, 6:00,27.4,59,26.9,24.3
 2003/07/02, 6:15,27.4,59,26.9,24.1
 2003/07/02, 6:30,27.4,59,26.7,23.1
 2003/07/02, 6:45,27.4,60,26.7,22.4
 2003/07/02, 7:00,27.7,65,26.6,22.6
 2003/07/02, 7:15,27.8,60,27,22.7
 2003/07/02, 7:30,27.9,59,27.2,22.2
 2003/07/02, 7:45,27.9,61,27.3,21.9
 2003/07/02, 8:00,27.9,60,27.3,22
 2003/07/02, 8:15,28,60,27.2,22.1
 2003/07/02, 8:30,28,59,27.3,22.2
 2003/07/02, 8:45,28,59,27.2,22.3
 2003/07/02, 9:00,28,59,27.2,22.7
 2003/07/02, 9:15,28,57,27,21
 2003/07/02, 9:30,28.1,57,26.9,21.1
 2003/07/02, 9:45,28.1,56,26.6,21.2
 2003/07/02,10:00,28.1,56,26.6,21.2
 2003/07/02,10:15,28.1,56,26.6,21.3
 2003/07/02,10:30,28.1,56,26.6,21.4
 2003/07/02,10:45,28,56,26.6,21.6
 2003/07/02,11:00,28,56,26.6,21.7
 2003/07/02,11:15,27.9,57,26.6,21.8
 2003/07/02,11:30,27.9,56,26.5,21.9
 2003/07/02,11:45,27.9,56,26.6,22
 2003/07/02,12:00,27.9,55,26.5,22.1
 2003/07/02,12:15,27.9,55,26.5,22.2
 2003/07/02,12:30,27.9,55,26.5,22.3
 2003/07/02,12:45,27.9,55,26.5,22.4
 2003/07/02,13:00,27.9,55,26.5,22.4
 2003/07/02,13:15,27.9,55,26.6,22.5
 2003/07/02,13:30,28,54,26.7,22.6
 2003/07/02,13:45,27.9,53,27,23.8
 2003/07/02,14:00,28,53,26.9,23.8
 2003/07/02,14:15,28,53,26.8,23.9
 2003/07/02,14:30,28,53,26.9,23.9
 2003/07/02,14:45,28.1,52,26.8,23.9
 2003/07/02,15:00,28.1,53,26.8,24
 2003/07/02,15:15,28.2,52,26.9,23
 2003/07/02,15:30,28.2,52,26.8,23
 2003/07/02,15:45,28.2,52,27,23.1
 2003/07/02,16:00,28.2,51,27,22.8
 2003/07/02,16:15,28.3,51,27,22.9
 2003/07/02,16:30,28.3,52,27,23.3
 2003/07/02,16:45,28.3,52,27,22.7
 2003/07/02,17:00,28.4,52,27.1,22.7
 2003/07/02,17:15,28.4,50,27.3,22.8
 2003/07/02,17:30,28.4,51,27.4,22.9
 2003/07/02,17:45,28.4,52,27.6,20.9
 2003/07/02,18:00,28.4,52,27.5,21.1
 2003/07/02,18:15,28.3,53,27.4,21.2
 2003/07/02,18:30,28.3,53,27.3,21.4
 2003/07/02,18:45,28.3,54,27.3,22.4
 2003/07/02,19:00,28.3,54,27.5,22.5
 2003/07/02,19:15,28.3,53,27.3,22.6
 2003/07/02,19:30,28.3,53,27.3,22.7
 2003/07/02,19:45,28.4,53,27.3,22.8
 2003/07/02,20:00,28.4,52,27.2,22.9
 2003/07/02,20:15,28.3,52,27.3,22.8
 2003/07/02,20:30,28.3,52,27.1,20
 2003/07/02,20:45,28.3,52,27.1,20.2
 2003/07/02,21:00,28.3,50,27.1,20.4
 2003/07/02,21:15,28.3,50,27,20.6
 2003/07/02,21:30,28.3,52,27.1,20.7
 2003/07/02,21:45,28.4,52,27.2,20.9
 2003/07/02,22:00,28.4,52,27.3,21
 2003/07/02,22:15,28.4,53,27.4,21.9
 2003/07/02,22:30,28.5,52,27.4,20.4
 2003/07/02,22:45,28.5,52,27.3,20.5
 2003/07/02,23:00,28.4,53,27.3,20.7
 2003/07/02,23:15,28.5,53,27.2,20.9
 2003/07/02,23:30,28.5,53,27.2,21
 2003/07/02,23:45,28.5,52,27.2,21.2
 2003/07/03, 0:00,28.5,53,27.3,22.3
 2003/07/03, 0:15,28.5,53,27.2,22.4
 2003/07/03, 0:30,28.5,54,27.2,22.5
 2003/07/03, 0:45,28.4,54,27.2,22.6
 2003/07/03, 1:00,28.3,53,27.3,22.7
 2003/07/03, 1:15,28.2,54,27.2,22.8
 2003/07/03, 1:30,28.2,54,27.2,22.8
 2003/07/03, 1:45,28.1,54,27.3,22.9
 2003/07/03, 2:00,28.1,55,27.1,23
 2003/07/03, 2:15,28,55,27.1,23.1
 2003/07/03, 2:30,28,55,27.1,23.2
 2003/07/03, 2:45,28,55,27,23.2
 2003/07/03, 3:00,28,55,27,23.3
 2003/07/03, 3:15,28,55,27,23.4
 2003/07/03, 3:30,27.9,55,27,23.4
 2003/07/03, 3:45,27.9,55,27,23.5
 2003/07/03, 4:00,27.9,55,27,23.6
 2003/07/03, 4:15,27.9,56,26.9,23.6
 2003/07/03, 4:30,27.8,56,26.9,23.7
 2003/07/03, 4:45,27.8,56,26.9,23.7
 2003/07/03, 5:00,27.8,56,26.9,23.8
 2003/07/03, 5:15,27.7,56,26.9,23.8
 2003/07/03, 5:30,27.7,55,26.9,23.9
 2003/07/03, 5:45,27.7,55,26.9,23.9
 2003/07/03, 6:00,27.8,55,27,24.2
 2003/07/03, 6:15,27.9,57,26.9,21.3
 2003/07/03, 6:30,28,57,26.9,21.5
 2003/07/03, 6:45,28.1,56,26.9,21.6
 2003/07/03, 7:00,28.1,56,27.1,21.8
 2003/07/03, 7:15,28,56,27,21.7
 2003/07/03, 7:30,28,56,26.9,19.7
 2003/07/03, 7:45,28.1,56,27.1,19.6
 2003/07/03, 8:00,28.1,55,26.9,19.3
 2003/07/03, 8:15,28.1,56,27,19.5
 2003/07/03, 8:30,28.1,56,27.1,19.6
 2003/07/03, 8:45,28.1,55,27,19.8
 2003/07/03, 9:00,28.1,55,27.1,19.9
 2003/07/03, 9:15,28.2,55,27.2,20.1
 2003/07/03, 9:30,28.2,56,27.1,20.2
 2003/07/03, 9:45,28.2,56,26.9,20.4
 2003/07/03,10:00,28.3,55,26.8,20.5
 2003/07/03,10:15,28.3,56,26.9,20.7
 2003/07/03,10:30,28.3,56,26.8,20.8
 2003/07/03,10:45,28.3,57,26.8,21
 2003/07/03,11:00,28.4,58,26.9,21.1
 2003/07/03,11:15,28.4,59,27.2,23.1
 2003/07/03,11:30,28.3,60,27.4,23.1
 2003/07/03,11:45,28.3,60,27.5,23.2
 2003/07/03,12:00,28.4,60,27.6,23.2
 2003/07/03,12:15,28.4,60,27.7,23.3
 2003/07/03,12:30,28.4,60,27.7,23.4
 2003/07/03,12:45,28.4,60,27.8,23.5
 2003/07/03,13:00,28.4,61,27.8,23.5
 2003/07/03,13:15,28.4,63,27.7,23.8
 2003/07/03,13:30,28.1,64,27.5,23.9
 2003/07/03,13:45,28.4,63,27.4,23.9
 2003/07/03,14:00,28.5,63,27.4,24
 2003/07/03,14:15,28.6,62,27.4,22.9
 2003/07/03,14:30,28.5,62,27.4,21.5
 2003/07/03,14:45,28.1,62,26.9,21.7
 2003/07/03,15:00,28.2,62,27.1,22.6
 2003/07/03,15:15,28.3,62,27.2,22.7
 2003/07/03,15:30,28.3,62,27.1,22.8
 2003/07/03,15:45,28.2,62,27.3,22.8
 2003/07/03,16:00,28.3,62,27.2,22.9
 2003/07/03,16:15,28.3,62,27.3,23
 2003/07/03,16:30,28.3,63,27.3,23.1
 2003/07/03,16:45,28.3,63,27.3,23.2
 2003/07/03,17:00,28.3,64,27.3,23.3
 2003/07/03,17:15,28.3,64,27.3,23.3
 2003/07/03,17:30,28.3,66,27.6,23.4
 2003/07/03,17:45,28.3,66,27.7,23.5
 2003/07/03,18:00,28.3,65,27.5,23.5
 2003/07/03,18:15,28.3,66,27.5,23.5
 2003/07/03,18:30,28.4,66,27.4,23.6
 2003/07/03,18:45,28.2,65,27.2,23.7
 2003/07/03,19:00,28.1,65,26.9,23.8
 2003/07/03,19:15,28.2,66,27.3,23.8
 2003/07/03,19:30,28.2,66,27.3,23.9
 2003/07/03,19:45,28.3,66,27.3,23.9
 2003/07/03,20:00,28.3,66,27.2,24
 2003/07/03,20:15,28.4,69,27.2,24.1
 2003/07/03,20:30,28.5,72,27.3,24
 2003/07/03,20:45,28.6,71,27.7,24
 2003/07/03,21:00,28.6,72,28,24.1
 2003/07/03,21:15,28.5,71,28.1,21.7
 2003/07/03,21:30,28.6,70,28,21.8
 2003/07/03,21:45,28.6,69,27.8,20.9
 2003/07/03,22:00,28.6,69,27.8,21.1
 2003/07/03,22:15,28.6,70,27.8,21.3
 2003/07/03,22:30,28.6,70,27.7,21.9
 2003/07/03,22:45,28.5,71,27.8,22
 2003/07/03,23:00,28.5,71,27.8,22.1
 2003/07/03,23:15,28.6,71,27.8,22.7
 2003/07/03,23:30,28.5,72,27.8,22.8
 2003/07/03,23:45,28.6,71,27.7,22.9
 2003/07/04, 0:00,28.6,73,27.8,23
 2003/07/04, 0:15,28.6,74,27.7,23.1
 2003/07/04, 0:30,28.6,74,27.8,23.2
 2003/07/04, 0:45,28.5,76,28.1,23.3
 2003/07/04, 1:00,28.6,75,28.3,23.4
 2003/07/04, 1:15,28.6,74,28.4,23.5
 2003/07/04, 1:30,28.6,74,28.4,23.6
 2003/07/04, 1:45,28.5,74,28.4,23.6
 2003/07/04, 2:00,28.5,73,28.4,23.7
 2003/07/04, 2:15,28.4,73,28.4,23.8
 2003/07/04, 2:30,28.3,73,28.4,23.9
 2003/07/04, 2:45,28.3,73,28.4,23.9
 2003/07/04, 3:00,28.3,73,28.4,24
 2003/07/04, 3:15,28.3,73,28.4,24.1
 2003/07/04, 3:30,28.3,72,28.4,24.1
 2003/07/04, 3:45,28.3,72,28.4,24.2
 2003/07/04, 4:00,28.3,72,28.4,24.3
 2003/07/04, 4:15,28.2,72,28.4,24.3
 2003/07/04, 4:30,28.2,72,28.4,24.4
 2003/07/04, 4:45,28.2,72,28.4,24.5
 2003/07/04, 5:00,28.2,72,28.4,24.5
 2003/07/04, 5:15,28.1,71,28.3,24.6
 2003/07/04, 5:30,28.1,71,28.3,24.8
 2003/07/04, 5:45,28.2,71,27.9,24.6
 2003/07/04, 6:00,28.1,69,27.7,22.9
 2003/07/04, 6:15,28.1,67,27.7,23
 2003/07/04, 6:30,28.3,71,27.6,22.9
 2003/07/04, 6:45,28.4,68,27.5,23
 2003/07/04, 7:00,28.3,67,27.6,23.1
 2003/07/04, 7:15,28.2,66,27.7,23.2
 2003/07/04, 7:30,28.3,66,27.8,20.7
 2003/07/04, 7:45,28.2,65,27.8,19.2
 2003/07/04, 8:00,28.3,64,27.6,19.4
 2003/07/04, 8:15,28.2,64,27.4,19.6
 2003/07/04, 8:30,28.3,64,27.3,19.8
 2003/07/04, 8:45,28.2,63,27.3,20.6
 2003/07/04, 9:00,28.3,63,27.3,21.3
 2003/07/04, 9:15,28.3,61,27.2,23.6
 2003/07/04, 9:30,28.1,61,27.1,25.7
 2003/07/04, 9:45,28.2,61,27,25.9
 2003/07/04,10:00,28.2,60,26.8,25.9
 2003/07/04,10:15,-9.9,-9.9,-9.9,-9.9
 2003/07/04,10:30,-9.9,-9.9,-9.9,-9.9
 2003/07/04,10:45,-9.9,-9.9,-9.9,-9.9
 2003/07/04,11:00,-9.9,-9.9,-9.9,-9.9
 2003/07/04,11:15,27.9,56,26.6,-9.9
 2003/07/04,11:30,28,57,26.6,23.9
 2003/07/04,11:45,28,56,26.7,23.3
 2003/07/04,12:00,28.2,57,26.7,23.3
 2003/07/04,12:15,28.2,56,26.8,23.4
 2003/07/04,12:30,28.2,56,26.6,23.4
 2003/07/04,12:45,28.1,55,26.5,23.5
 2003/07/04,13:00,28.1,56,26.7,23.5
 2003/07/04,13:15,28.2,57,26.6,22.6
 2003/07/04,13:30,28.3,56,26.8,22.5
 2003/07/04,13:45,28.2,57,26.9,22.6
 2003/07/04,14:00,28,55,26.5,22.6
 2003/07/04,14:15,27.8,56,26.5,22.7
 2003/07/04,14:30,28.2,58,26.5,22.7
 2003/07/04,14:45,28.4,59,26.6,22.8
 2003/07/04,15:00,28.3,56,26.8,23.3
 2003/07/04,15:15,28.3,56,26.9,23.3
 2003/07/04,15:30,28.2,55,26.9,23.4
 2003/07/04,15:45,28.2,55,26.8,23.4
 2003/07/04,16:00,28.1,56,26.8,23.4
 2003/07/04,16:15,28,57,26.8,23.5
 2003/07/04,16:30,28,58,26.8,23.5
 2003/07/04,16:45,27.9,58,26.8,23.6
 2003/07/04,17:00,27.8,57,26.6,23.6
 2003/07/04,17:15,27.8,58,26.7,23.7
 2003/07/04,17:30,27.9,57,26.8,23.7
 2003/07/04,17:45,27.9,57,26.8,23.8
 2003/07/04,18:00,27.8,58,26.3,23
 2003/07/04,18:15,27.7,58,26,23.1
 2003/07/04,18:30,27.6,56,25.8,23.1
 2003/07/04,18:45,27.4,58,25.6,23.2
 2003/07/04,19:00,27.6,58,25.6,23.2
 2003/07/04,19:15,27.6,58,25.8,23.2
 2003/07/04,19:30,27.6,57,25.9,23.3
 2003/07/04,19:45,27.8,57,26.1,21.8
 2003/07/04,20:00,27.8,57,26.1,21.9
 2003/07/04,20:15,28,58,26.2,22
 2003/07/04,20:30,28.1,58,26.2,22
 2003/07/04,20:45,28.1,57,26.4,22.1
 2003/07/04,21:00,28.1,57,26.8,22.1
 2003/07/04,21:15,28.2,56,27,22.2
 2003/07/04,21:30,28.2,56,27.1,22.3
 2003/07/04,21:45,28.2,57,26.9,21.9
 2003/07/04,22:00,28.2,56,26.9,20.8
 2003/07/04,22:15,28.2,56,26.8,20.9
 2003/07/04,22:30,28.2,57,26.9,21
 2003/07/04,22:45,28.2,57,26.9,21.1
 2003/07/04,23:00,28.2,57,26.9,21.2
 2003/07/04,23:15,28.2,57,26.9,21.2
 2003/07/04,23:30,28.2,57,26.8,21.3
 2003/07/04,23:45,28.2,56,26.9,22.8
 2003/07/05, 0:00,28.2,56,26.8,22.9
 2003/07/05, 0:15,28.1,57,26.8,22.9
 2003/07/05, 0:30,28.1,57,26.8,23
 2003/07/05, 0:45,28,57,26.8,23
 2003/07/05, 1:00,28,57,26.8,23
 2003/07/05, 1:15,28,57,26.8,23.1
 2003/07/05, 1:30,27.9,58,26.8,23.1
 2003/07/05, 1:45,27.9,58,26.7,23.2
 2003/07/05, 2:00,27.9,58,26.7,23.2
 2003/07/05, 2:15,27.8,58,26.7,23.3
 2003/07/05, 2:30,27.9,58,26.7,23.3
 2003/07/05, 2:45,27.8,58,26.7,23.4
 2003/07/05, 3:00,27.8,58,26.7,23.4
 2003/07/05, 3:15,27.8,58,26.7,24.5
 2003/07/05, 3:30,27.6,59,26.7,24.5
 2003/07/05, 3:45,27.6,59,26.6,24.5
 2003/07/05, 4:00,27.6,59,26.6,24.6
 2003/07/05, 4:15,27.5,59,26.6,24.6
 2003/07/05, 4:30,27.5,59,26.6,24.6
 2003/07/05, 4:45,27.4,59,26.6,24.6
 2003/07/05, 5:00,27.4,59,26.5,24.7
 2003/07/05, 5:15,27.3,59,26.5,24.7
 2003/07/05, 5:30,27.3,59,26.5,24.7
 2003/07/05, 5:45,27.3,59,26.5,24.7
 2003/07/05, 6:00,27.4,59,26.5,24.8
 2003/07/05, 6:15,27.4,59,26.9,22.4
 2003/07/05, 6:30,27.5,60,27.2,22.4
 2003/07/05, 6:45,27.6,62,27.2,22.5
 2003/07/05, 7:00,27.7,61,26.9,22.6
 2003/07/05, 7:15,27.8,60,27.2,22.6
 2003/07/05, 7:30,27.8,60,26.9,22.7
 2003/07/05, 7:45,27.8,60,26.9,22.7
 2003/07/05, 8:00,27.9,61,26.8,22.8
 2003/07/05, 8:15,27.9,60,26.8,22.8
 2003/07/05, 8:30,28,60,26.8,22.9
 2003/07/05, 8:45,27.9,60,26.8,22.5
 2003/07/05, 9:00,27.8,60,26.8,22.5
 2003/07/05, 9:15,27.9,61,26.7,22.6
 2003/07/05, 9:30,27.9,61,26.8,19.9
 2003/07/05, 9:45,27.9,62,26.9,20
 2003/07/05,10:00,27.9,61,26.8,20.6
 2003/07/05,10:15,27.9,61,26.7,20.6
 2003/07/05,10:30,27.8,61,26.6,20.7
 2003/07/05,10:45,27.9,61,26.6,20.8
 2003/07/05,11:00,27.8,61,26.6,21.5
 2003/07/05,11:15,27.7,61,26.5,21.5
 2003/07/05,11:30,27.8,62,26.5,21.6
 2003/07/05,11:45,27.7,62,26.5,21.7
 2003/07/05,12:00,27.8,62,26.5,21.8
 2003/07/05,12:15,27.8,63,26.5,21.9
 2003/07/05,12:30,27.7,63,26.5,21.9
 2003/07/05,12:45,27.8,64,26.5,22
 2003/07/05,13:00,27.8,65,26.5,21
 2003/07/05,13:15,28,65,26.5,21.1
 2003/07/05,13:30,28.1,65,26.6,21.1
 2003/07/05,13:45,28.2,65,26.7,20.7
 2003/07/05,14:00,28.3,66,26.9,20.2
 2003/07/05,14:15,28.3,66,27,20.5
 2003/07/05,14:30,28.4,66,27.1,20.8
 2003/07/05,14:45,28.4,66,27.2,20.8
 2003/07/05,15:00,28.5,65,27.2,20.2
 2003/07/05,15:15,28.4,65,27.2,20.3
 2003/07/05,15:30,28.3,66,27.2,21.2
 2003/07/05,15:45,28.3,66,27.2,21.2
 2003/07/05,16:00,28.3,67,27.2,21.3
 2003/07/05,16:15,28.3,68,27.3,21.4
 2003/07/05,16:30,28.3,68,27.2,21.4
 2003/07/05,16:45,28.4,68,27.2,21.5
 2003/07/05,17:00,28.4,67,27.2,21.6
 2003/07/05,17:15,28.5,69,27.3,21.7
 2003/07/05,17:30,28.5,70,27.3,21.7
 2003/07/05,17:45,28.5,69,27.4,21.8
 2003/07/05,18:00,28.6,69,27.5,21.9
 2003/07/05,18:15,28.6,68,27.6,22.8
 2003/07/05,18:30,28.7,68,27.6,22.9
 2003/07/05,18:45,28.7,69,27.8,23
 2003/07/05,19:00,28.8,68,27.8,23
 2003/07/05,19:15,28.8,71,27.8,23.1
 2003/07/05,19:30,28.7,71,27.9,23.1
 2003/07/05,19:45,28.7,71,27.9,23.2
 2003/07/05,20:00,28.6,71,27.8,23.3
 2003/07/05,20:15,28.7,71,27.9,23.3
 2003/07/05,20:30,28.8,71,28,23.3
 2003/07/05,20:45,28.9,70,28,22.6
 2003/07/05,21:00,28.8,70,28,22.6
 2003/07/05,21:15,28.8,70,28,21.1
 2003/07/05,21:30,28.8,69,28,21.2
 2003/07/05,21:45,28.8,69,28,21.3
 2003/07/05,22:00,28.8,69,28,21.4
 2003/07/05,22:15,28.8,69,28,21.4
 2003/07/05,22:30,28.9,69,28,21.5
 2003/07/05,22:45,28.9,69,28,22.8
 2003/07/05,23:00,28.9,68,28,22.8
 2003/07/05,23:15,28.9,68,28,22.9
 2003/07/05,23:30,28.9,68,28,22.9
 2003/07/05,23:45,28.9,68,28,23
 2003/07/06, 0:00,28.9,68,28,23
 2003/07/06, 0:15,28.9,68,28,21.9
 2003/07/06, 0:30,28.9,68,28,21.2
 2003/07/06, 0:45,28.9,68,28,21.2
 2003/07/06, 1:00,28.9,69,28,21.3
 2003/07/06, 1:15,28.8,69,28,21.4
 2003/07/06, 1:30,28.8,70,28,22.1
 2003/07/06, 1:45,28.8,69,27.9,22.5
 2003/07/06, 2:00,28.8,69,27.9,22.5
 2003/07/06, 2:15,28.7,69,27.9,22.6
 2003/07/06, 2:30,28.6,70,27.9,22.6
 2003/07/06, 2:45,28.6,70,27.9,22.6
 2003/07/06, 3:00,28.5,70,27.8,22.7
 2003/07/06, 3:15,28.5,70,27.8,22.8
 2003/07/06, 3:30,28.4,71,27.8,22.8
 2003/07/06, 3:45,28.4,71,27.8,22.9
 2003/07/06, 4:00,28.4,71,27.8,23
 2003/07/06, 4:15,28.4,71,27.8,23
 2003/07/06, 4:30,28.3,71,27.8,23.1
 2003/07/06, 4:45,28.3,70,27.8,23.1
 2003/07/06, 5:00,28.3,70,27.7,23.2
 2003/07/06, 5:15,28.3,70,27.7,23.3
 2003/07/06, 5:30,28.3,70,27.7,23.3
 2003/07/06, 5:45,28.3,70,27.7,23.4
 2003/07/06, 6:00,28.2,70,27.7,23.5
 2003/07/06, 6:15,28.2,70,27.6,23.5
 2003/07/06, 6:30,28.2,70,27.6,23.6
 2003/07/06, 6:45,28.2,70,27.6,23.6
 2003/07/06, 7:00,28.2,70,27.6,23.7
 2003/07/06, 7:15,28.2,70,27.6,23.8
 2003/07/06, 7:30,28.2,70,27.5,23.8
 2003/07/06, 7:45,28.2,70,27.6,23.9
 2003/07/06, 8:00,28.2,70,27.6,25.2
 2003/07/06, 8:15,28.2,70,27.6,21.6
 2003/07/06, 8:30,28.3,70,27.6,21.5
 2003/07/06, 8:45,28.3,70,27.6,21.5
 2003/07/06, 9:00,28.4,69,27.7,21.6
 2003/07/06, 9:15,28.4,69,27.7,21.9
 2003/07/06, 9:30,28.4,69,27.8,20.4
 2003/07/06, 9:45,28.5,69,28,20.4
 2003/07/06,10:00,28.6,69,27.8,20.5
 2003/07/06,10:15,28.5,69,27.7,20.6
 2003/07/06,10:30,28.5,69,27.7,20.7
 2003/07/06,10:45,28.5,69,27.7,20.8
 2003/07/06,11:00,28.4,69,27.6,20.9
 2003/07/06,11:15,28.5,69,27.7,21
 2003/07/06,11:30,28.4,69,27.7,21.1
 2003/07/06,11:45,28.5,69,27.7,21.2
 2003/07/06,12:00,28.5,69,27.7,21.3
 2003/07/06,12:15,28.5,69,27.8,21.4
 2003/07/06,12:30,28.6,69,28.1,22.9
 2003/07/06,12:45,28.6,70,28,21.4
 2003/07/06,13:00,28.6,70,27.9,20.3
 2003/07/06,13:15,28.6,69,27.9,20.4
 2003/07/06,13:30,28.6,70,28.1,21.4
 2003/07/06,13:45,28.6,70,28,21
 2003/07/06,14:00,28.6,71,28,21.1
 2003/07/06,14:15,28.6,72,28,21.1
 2003/07/06,14:30,28.6,72,28,21.2
 2003/07/06,14:45,28.6,72,28,21.3
 2003/07/06,15:00,28.6,72,28,21.4
 2003/07/06,15:15,28.6,72,28,21.5
 2003/07/06,15:30,28.6,72,28,21.6
 2003/07/06,15:45,28.6,72,27.9,21.7
 2003/07/06,16:00,28.6,72,27.9,21.8
 2003/07/06,16:15,28.5,71,27.9,21.9
 2003/07/06,16:30,28.5,72,27.9,21.9
 2003/07/06,16:45,28.5,71,27.9,22
 2003/07/06,17:00,28.4,71,27.8,22.1
 2003/07/06,17:15,28.5,71,27.8,22.2
 2003/07/06,17:30,28.4,71,27.8,22.3
 2003/07/06,17:45,28.4,71,27.8,22.4
 2003/07/06,18:00,28.4,71,27.8,22.5
 2003/07/06,18:15,28.4,71,27.8,22.5
 2003/07/06,18:30,28.4,71,27.8,22.6
 2003/07/06,18:45,28.4,71,27.8,22.7
 2003/07/06,19:00,28.3,70,27.7,22.8
 2003/07/06,19:15,28.3,70,27.7,22.9
 2003/07/06,19:30,28.4,70,27.9,20.2
 2003/07/06,19:45,28.4,70,28,19.8
 2003/07/06,20:00,28.4,72,27.8,19.9
 2003/07/06,20:15,28.4,71,27.8,20
 2003/07/06,20:30,28.6,71,27.9,20.1
 2003/07/06,20:45,28.6,70,27.9,20.2
 2003/07/06,21:00,28.7,72,28,19.8
 2003/07/06,21:15,28.7,71,28,20.1
 2003/07/06,21:30,28.8,71,28,20.2
 2003/07/06,21:45,28.8,71,28.1,20.3
 2003/07/06,22:00,28.8,71,28.1,20.4
 2003/07/06,22:15,28.9,71,28.1,20.5
 2003/07/06,22:30,28.9,71,28.1,20.6
 2003/07/06,22:45,28.9,71,28.2,20.7
 2003/07/06,23:00,28.9,71,28.2,20.8
 2003/07/06,23:15,28.9,70,28.2,20.9
 2003/07/06,23:30,28.9,70,28.2,21
 2003/07/06,23:45,28.8,70,28.2,21.1
 2003/07/07, 0:00,28.8,70,28.1,21.2
 2003/07/07, 0:15,28.8,70,28.1,21.3
 2003/07/07, 0:30,28.8,69,28.1,21.4
 2003/07/07, 0:45,28.8,69,28.1,21.5
 2003/07/07, 1:00,28.7,70,28.1,21.6
 2003/07/07, 1:15,28.7,69,28.1,21.7
 2003/07/07, 1:30,28.7,69,28,21.8
 2003/07/07, 1:45,28.7,69,28,21.9
 2003/07/07, 2:00,28.7,69,28,22
 2003/07/07, 2:15,28.6,69,27.9,22.1
 2003/07/07, 2:30,28.6,69,27.9,22.2
 2003/07/07, 2:45,28.6,69,27.9,22.3
 2003/07/07, 3:00,28.6,69,27.9,22.3
 2003/07/07, 3:15,28.6,69,27.9,24.7
 2003/07/07, 3:30,28.6,69,27.8,24.7
 2003/07/07, 3:45,28.6,69,27.9,24.8
 2003/07/07, 4:00,28.5,69,27.8,24.8
 2003/07/07, 4:15,28.5,69,27.8,24.8
 2003/07/07, 4:30,28.5,69,27.8,24.9
 2003/07/07, 4:45,28.5,69,27.8,24.9
 2003/07/07, 5:00,28.5,69,27.8,24.9
 2003/07/07, 5:15,28.5,69,27.8,25
 2003/07/07, 5:30,28.4,69,27.7,25
 2003/07/07, 5:45,28.5,69,27.7,25.1
 2003/07/07, 6:00,28.5,69,27.7,25.1
 2003/07/07, 6:15,28.5,69,27.7,25.1
 2003/07/07, 6:30,28.6,70,28,24.5
 2003/07/07, 6:45,28.7,70,27.9,24.5
 2003/07/07, 7:00,28.7,69,27.8,24.5
 2003/07/07, 7:15,28.7,69,27.8,23.3
 2003/07/07, 7:30,28.8,73,27.8,19.5
 2003/07/07, 7:45,28.8,70,27.8,19.9
 2003/07/07, 8:00,28.8,69,27.6,19.9
 2003/07/07, 8:15,28.9,69,27.5,20
 2003/07/07, 8:30,28.9,69,27.6,20.1
 2003/07/07, 8:45,28.8,69,27.5,21.9
 2003/07/07, 9:00,28.8,69,27.3,22
 2003/07/07, 9:15,28.7,70,27.5,22.3
 2003/07/07, 9:30,28.7,70,27.4,21.6
 2003/07/07, 9:45,28.7,70,27.4,21.7
 2003/07/07,10:00,28.8,69,27.5,21.7
 2003/07/07,10:15,28.9,70,27.5,22.2
 2003/07/07,10:30,28.9,70,27.5,22.3
 2003/07/07,10:45,29,70,27.8,22.4
 2003/07/07,11:00,29,70,27.8,22.4
 2003/07/07,11:15,29,70,27.8,22.7
 2003/07/07,11:30,29.1,70,27.8,22.8
 2003/07/07,11:45,29,70,27.8,22.8
 2003/07/07,12:00,29,70,27.9,22.9
 2003/07/07,12:15,28.9,70,27.9,23
 2003/07/07,12:30,28.9,70,28,23
 2003/07/07,12:45,28.9,70,28,23.1
 2003/07/07,13:00,28.9,71,28.4,23.7
 2003/07/07,13:15,28.9,70,28.7,23.8
 2003/07/07,13:30,28.9,69,28.8,23.8
 2003/07/07,13:45,29,69,28.9,23.9
 2003/07/07,14:00,29,69,29,23.9
 2003/07/07,14:15,29,69,29,24
 2003/07/07,14:30,29,69,29.1,24
 2003/07/07,14:45,28.9,69,29.2,24.1
 2003/07/07,15:00,29,69,29.1,24.1
 2003/07/07,15:15,28.9,68,29.1,24.8
 2003/07/07,15:30,28.9,69,28.7,24.9
 2003/07/07,15:45,29,69,28.8,24.9
 2003/07/07,16:00,29,69,29,21.7
 2003/07/07,16:15,28.9,69,29.1,21.7
 2003/07/07,16:30,28.9,68,28.8,21.8
 2003/07/07,16:45,28.9,68,28.6,21.9
 2003/07/07,17:00,28.9,68,28.6,22
 2003/07/07,17:15,28.9,68,28.5,22.1
 2003/07/07,17:30,28.9,68,28.5,22.2
 2003/07/07,17:45,28.9,68,28.4,22.3
 2003/07/07,18:00,28.9,68,28.4,22.3
 2003/07/07,18:15,28.9,69,28.4,22.4
 2003/07/07,18:30,28.9,68,28.4,23.4
 2003/07/07,18:45,29,69,28.5,23.5
 2003/07/07,19:00,29.1,68,28.5,21.9
 2003/07/07,19:15,29.2,68,28.6,21.9
 2003/07/07,19:30,29.2,69,28.5,22
 2003/07/07,19:45,29.3,70,28.6,22.1